#timestamp,LO_Frequency,Hit,StdDev 
1557730815.5,286047000.3,N
1557730835.4,286047002.3,N
1557730855.2,286047000.0,N
1557730875.0,286047004.0,N
1557730875.9,286047004.0,N
1557730895.8,286047002.0,N
1557730915.6,286047000.3,N
1557730935.4,286047005.6,N
1557730955.3,286047004.4,N
1557730975.1,286047001.4,N
1557730995.9,286047003.7,N
1557731015.7,286047002.2,N
1557731035.5,286047002.5,N
1557731055.4,286047002.4,N
1557731075.2,286046999.9,N
1557731095.1,286047001.0,N
1557731096.0,286047001.0,N
1557731115.8,286046999.8,N
1557731135.6,286047001.6,N
1557731155.5,286047000.1,N
1557731175.3,286047002.4,N
1557731195.1,286046999.0,N
1557731215.9,286046999.4,N
1557731235.7,286046998.2,N
1557731255.6,286047000.6,N
1557731275.4,286047000.1,N
1557731295.2,286046999.8,N
1557731315.1,286046999.8,N
1557731316.0,286046999.8,N
1557731335.8,286047000.6,N
1557731355.6,286047002.3,N
1557731375.5,286046998.3,N
1557731395.3,286047011.9,Y
1557731415.2,286047000.3,P
1557731435.9,286046997.3,P
1557731455.7,286046997.0,N
1557731475.6,286046995.7,N
1557731495.4,286046996.2,N
1557731515.2,286046993.3,Y
1557731535.1,286046995.9,P
1557731536.0,286046995.9,P
1557731555.8,286046997.8,N
1557731575.7,286046995.1,Y
1557731595.5,286047000.8,P
1557731615.3,286047000.8,N
1557731635.2,286046998.4,N
1557731655.0,286046999.9,N
1557731655.9,286046999.9,N
1557731675.8,286046998.1,N
1557731695.6,286047002.5,N
1557731715.4,286047000.3,N
1557731735.3,286047002.5,N
1557731755.1,286047004.4,N
1557731775.9,286047001.7,N
1557731795.7,286047003.2,N
1557731815.5,286047001.4,N
1557731835.4,286047001.8,N
1557731855.2,286047003.4,N
1557731875.1,286047003.1,N
1557731876.0,286047003.1,N
1557731895.8,286047002.0,N
1557731915.6,286047002.7,N
1557731935.5,286047002.0,N
1557731955.3,286047001.8,N
1557731975.1,286047003.5,N
1557731995.9,286047005.8,Y
1557732015.7,286047002.9,P
1557732035.6,286047001.4,N
1557732055.4,286046999.9,N
1557732075.2,286047002.0,N
1557732095.1,286046999.8,N
1557732096.0,286046999.8,N
1557732115.8,286047002.4,N
1557732135.7,286047005.8,Y
1557732155.5,286047004.4,P
1557732175.3,286047004.5,N
1557732195.2,286047005.3,P
1557732215.0,286047001.8,N
1557732215.9,286047001.8,N
1557732235.7,286047001.8,N
1557732255.6,286047001.4,N
1557732275.4,286047001.6,N
1557732295.3,286047004.0,N
1557732315.1,286047004.1,N
1557732316.0,286047004.1,N
1557732335.8,286047001.9,N
1557732355.7,286047004.0,N
1557732375.5,286047001.7,N
1557732395.3,286047001.8,N
1557732415.2,286047001.3,N
1557732435.0,286047002.8,N
1557732435.9,286047002.8,N
1557732455.8,286047001.5,N
1557732475.6,286047001.6,N
1557732495.4,286047001.4,N
1557732515.3,286046999.7,N
1557732535.1,286046999.8,N
1557732555.8,286047003.7,N
1557732575.7,286047003.5,N
1557732595.5,286047001.7,N
1557732615.4,286047001.8,N
1557732635.2,286047001.9,N
1557732655.0,286047001.4,N
1557732655.9,286047001.4,N
1557732675.8,286047004.1,N
1557732695.6,286047001.9,N
1557732745.5,286047001.4,E
1557732755.4,286047002.6,N
1557732775.2,286046999.7,P
1557732795.1,286047002.6,N
1557732796.0,286047002.6,N
1557732815.8,286046999.8,N
1557732835.7,286047000.4,N
1557732855.5,286046999.8,N
1557732875.3,286047002.5,N
1557732895.2,286047002.2,N
1557732915.0,286047001.4,N
1557732915.9,286047001.4,N
1557732935.7,286047001.5,N
1557732955.6,286047001.7,N
1557732975.4,286047002.8,N
1557732995.3,286047002.7,N
1557733015.1,286047000.6,N
1557733016.0,286047000.6,N
1557733035.8,286047000.3,N
1557733055.7,286046998.6,N
1557733075.5,286046999.2,N
1557733095.3,286046999.0,N
1557733115.2,286046999.5,N
1557733135.0,286046999.1,N
1557733135.9,286046999.1,N
1557733155.8,286046997.0,N
1557733175.6,286046999.0,N
1557733195.4,286046998.5,N
1557733215.3,286046998.8,N
1557733235.1,286046998.9,N
1557733255.8,286046999.3,N
1557733275.7,286046997.1,N
1557733295.5,286046995.1,Y
1557733315.4,286046995.7,P
1557733335.2,286046995.5,N
1557733355.0,286046993.7,N
1557733355.9,286046993.7,N
1557733375.8,286046995.1,N
1557733395.6,286046996.6,N
1557733415.5,286046997.1,N
1557733435.3,286046998.7,N
1557733455.1,286046998.9,N
1557733475.9,286046997.0,N
1557733495.7,286046998.0,N
1557733515.5,286046996.7,N
1557733535.4,286046999.4,N
1557733555.2,286046997.4,N
1557733575.0,286046996.5,N
1557733576.0,286046996.5,N
1557733595.8,286046997.2,N
1557733615.6,286046996.7,N
1557733635.5,286046996.3,N
1557733655.3,286046993.8,Y
1557733675.1,286047000.9,P
1557733695.9,286046998.9,N
1557733715.7,286046998.7,N
1557733735.6,286046998.7,N
1557733755.4,286046997.2,N
1557733775.2,286046996.8,N
1557733795.1,286046998.0,N
1557733796.0,286046998.0,N
1557733815.8,286046997.5,N
1557733835.6,286046997.8,N
1557733855.5,286046997.8,N
1557733875.3,286046999.2,N
1557733895.2,286046998.8,N
1557733915.9,286047000.2,N
1557733935.7,286046998.4,N
1557733955.6,286046996.9,N
1557733975.4,286046999.5,N
1557733995.2,286046997.0,N
1557734015.1,286046999.3,N
1557734016.0,286046999.3,N
1557734035.8,286046998.8,N
1557734055.7,286047000.7,N
1557734075.5,286047002.5,N
1557734095.3,286047004.1,N
1557734115.2,286047003.9,N
1557734135.0,286047003.5,N
1557734135.9,286047003.5,N
1557734155.8,286047011.9,Y
1557734175.6,286046999.8,P
1557734195.4,286047001.1,P
1557734215.3,286046998.1,N
1557734235.1,286046998.4,N
1557734255.8,286046999.3,N
1557734275.7,286047000.6,N
1557734295.5,286047001.1,N
1557734315.4,286047001.2,N
1557734335.2,286046998.5,N
1557734355.0,286046999.7,N
1557734355.9,286046999.7,N
1557734375.8,286047001.7,N
1557734395.6,286047002.5,N
